Location: Central Coast NSW, Australia
(33.2407°S, 151.4316°E)
Time: 09:20:48
(UTC+10:00)

N. Korean satellite - Pass Details

Date: 31 March 2019
Orbit: 457 x 508 km, 97.2° (Epoch: 21 April)

Event Time Altitude Azimuth Distance (km) Brightness Sun altitude
Rises 05:56:05 0° 28° (NNE) 2,605 10.6 -15.2°
Reaches altitude 10° 05:58:14 10° 36° (NE) 1,730 9.8 -14.8°
Maximum altitude 06:01:44 39° 105° (ESE) 779 8.2 -14.0°
Drops below altitude 10° 06:05:17 10° 175° (S) 1,752 9.5 -13.3°
Sets 06:07:28 0° 182° (S) 2,642 10.3 -12.8°
